| time (UTC) | temp C | wind direction | speed KPH | gust KPH | rain 1hr cm | rain 24hr cm | rain mn cm | humidity % | barometer mb |
| 20260507224551 | 6 | 90 | 0.0 | 0.0 | 0.00 | 0.64 | 0.00 | 98 | 1018.7 |
| 20260507223548 | 6 | 90 | 0.0 | 0.0 | 0.00 | 0.64 | 0.00 | 98 | 1018.6 |
| 20260507222545 | 6 | 90 | 0.0 | 0.0 | 0.00 | 0.64 | 0.00 | 98 | 1018.5 |
| 20260507221541 | 6 | 90 | 0.0 | 0.0 | 0.00 | 0.64 | 0.00 | 97 | 1018.4 |
| 20260507220538 | 6 | 90 | 0.0 | 0.0 | 0.00 | 0.64 | 0.00 | 97 | 1018.4 |
| 20260507215534 | 6 | 90 | 0.0 | 0.0 | 0.00 | 0.64 | 0.64 | 97 | 1018.4 |
| 20260507214531 | 6 | 90 | 0.0 | 0.0 | 0.00 | 0.66 | 0.64 | 96 | 1018.4 |
| 20260507213527 | 6 | 90 | 0.0 | 0.0 | 0.00 | 0.71 | 0.64 | 96 | 1018.4 |
| 20260507212524 | 6 | 90 | 0.0 | 0.0 | 0.00 | 0.76 | 0.64 | 96 | 1018.4 |
| 20260507211520 | 6 | 90 | 0.0 | 0.0 | 0.00 | 0.81 | 0.64 | 95 | 1018.3 |
| 20260507210517 | 6 | 90 | 0.0 | 3.2 | 0.00 | 0.89 | 0.64 | 95 | 1018.3 |
| 20260507205614 | 6 | 90 | 0.0 | 0.0 | 0.00 | 0.97 | 0.64 | 96 | 1018.2 |
| 20260507204610 | 6 | 90 | 0.0 | 0.0 | 0.00 | 0.99 | 0.64 | 97 | 1018.2 |
| 20260507203607 | 6 | 90 | 0.0 | 3.2 | 0.00 | 0.99 | 0.64 | 96 | 1018.0 |
| 20260507202604 | 6 | 90 | 0.0 | 0.0 | 0.00 | 0.99 | 0.64 | 97 | 1018.0 |
| 20260507201600 | 6 | 90 | 0.0 | 0.0 | 0.00 | 0.99 | 0.64 | 97 | 1017.9 |
| 20260507200557 | 6 | 90 | 0.0 | 0.0 | 0.00 | 0.99 | 0.64 | 97 | 1017.9 |
| 20260507195553 | 6 | 90 | 0.0 | 0.0 | 0.00 | 0.99 | 0.64 | 97 | 1017.9 |
| 20260507194550 | 7 | 90 | 0.0 | 0.0 | 0.00 | 1.02 | 0.64 | 97 | 1017.8 |
| 20260507193546 | 7 | 90 | 0.0 | 0.0 | 0.00 | 1.04 | 0.64 | 97 | 1017.6 |
| 20260507192543 | 7 | 90 | 0.0 | 0.0 | 0.00 | 1.09 | 0.64 | 97 | 1017.6 |
| 20260507191539 | 7 | 90 | 0.0 | 0.0 | 0.03 | 1.09 | 0.64 | 97 | 1017.5 |
| 20260507190536 | 7 | 90 | 0.0 | 0.0 | 0.03 | 1.14 | 0.64 | 97 | 1017.3 |
| 20260507185533 | 7 | 90 | 0.0 | 0.0 | 0.03 | 1.14 | 0.64 | 97 | 1017.3 |
| 20260507184529 | 7 | 90 | 0.0 | 0.0 | 0.03 | 1.17 | 0.64 | 97 | 1017.1 |
| 20260507183526 | 7 | 90 | 0.0 | 0.0 | 0.03 | 1.19 | 0.64 | 97 | 1017.0 |
| 20260507182522 | 7 | 90 | 0.0 | 0.0 | 0.03 | 1.19 | 0.64 | 97 | 1016.8 |
| 20260507181519 | 7 | 146 | 0.0 | 3.2 | 0.03 | 1.17 | 0.61 | 97 | 1016.7 |
| 20260507180515 | 7 | 180 | 0.0 | 0.0 | 0.03 | 1.17 | 0.61 | 97 | 1016.7 |
| 20260507175612 | 7 | 68 | 0.0 | 3.2 | 0.03 | 1.17 | 0.61 | 97 | 1016.8 |
| 20260507174609 | 7 | 68 | 0.0 | 0.0 | 0.05 | 1.17 | 0.61 | 97 | 1016.7 |
| 20260507173606 | 7 | 113 | 0.0 | 0.0 | 0.18 | 1.17 | 0.61 | 97 | 1016.6 |
| 20260507172602 | 8 | 113 | 0.0 | 0.0 | 0.23 | 1.17 | 0.61 | 97 | 1016.4 |
| 20260507171559 | 7 | 113 | 0.0 | 0.0 | 0.23 | 1.14 | 0.56 | 97 | 1016.3 |
| 20260507170555 | 7 | 113 | 0.0 | 0.0 | 0.23 | 1.14 | 0.56 | 97 | 1016.3 |
| 20260507165552 | 7 | 113 | 0.0 | 3.2 | 0.23 | 1.14 | 0.56 | 96 | 1016.2 |
| 20260507164548 | 8 | 338 | 0.0 | 3.2 | 0.20 | 1.12 | 0.53 | 96 | 1016.2 |
| 20260507163545 | 8 | 68 | 0.0 | 3.2 | 0.13 | 0.99 | 0.43 | 95 | 1015.9 |
| 20260507162541 | 8 | 338 | 0.0 | 0.0 | 0.05 | 0.94 | 0.36 | 96 | 1016.0 |
| 20260507161539 | 8 | 338 | 0.0 | 3.2 | 0.05 | 0.89 | 0.33 | 95 | 1015.9 |
| 20260507160534 | 8 | 338 | 0.0 | 0.0 | 0.05 | 0.89 | 0.33 | 95 | 1015.9 |
| 20260507155531 | 8 | 338 | 0.0 | 3.2 | 0.05 | 0.89 | 0.33 | 95 | 1015.9 |
| 20260507154527 | 9 | 90 | 0.0 | 3.2 | 0.05 | 0.89 | 0.33 | 94 | 1015.7 |
| 20260507153524 | 9 | 113 | 0.0 | 3.2 | 0.03 | 0.86 | 0.30 | 94 | 1015.8 |
| 20260507152520 | 9 | 122 | 1.6 | 6.4 | 0.05 | 0.86 | 0.30 | 93 | 1015.6 |
| 20260507151517 | 9 | 158 | 0.0 | 3.2 | 0.03 | 0.84 | 0.28 | 92 | 1015.7 |
| 20260507150614 | 9 | 158 | 0.0 | 3.2 | 0.03 | 0.84 | 0.28 | 92 | 1015.6 |
| 20260507145610 | 9 | 150 | 1.6 | 3.2 | 0.05 | 0.84 | 0.28 | 92 | 1015.4 |
| 20260507144607 | 10 | 169 | 0.0 | 3.2 | 0.10 | 0.84 | 0.28 | 92 | 1015.3 |
| 20260507143604 | 10 | 158 | 1.6 | 6.4 | 0.10 | 0.84 | 0.28 | 91 | 1015.3 |
| 20260507142600 | 9 | 153 | 1.6 | 6.4 | 0.05 | 0.81 | 0.23 | 92 | 1015.3 |
| 20260507141557 | 10 | 149 | 1.6 | 6.4 | 0.05 | 0.81 | 0.23 | 92 | 1015.3 |
| 20260507140554 | 9 | 158 | 1.6 | 3.2 | 0.05 | 0.81 | 0.23 | 92 | 1015.3 |
| 20260507135550 | 10 | 173 | 1.6 | 6.4 | 0.03 | 0.79 | 0.20 | 91 | 1015.3 |
| 20260507134546 | 10 | 168 | 0.0 | 6.4 | 0.00 | 0.76 | 0.18 | 92 | 1015.2 |
| 20260507133543 | 10 | 135 | 0.0 | 3.2 | 0.00 | 0.76 | 0.18 | 91 | 1015.2 |
| 20260507132540 | 10 | 158 | 0.0 | 3.2 | 0.00 | 0.76 | 0.18 | 90 | 1015.0 |
| 20260507131536 | 10 | 135 | 0.0 | 3.2 | 0.00 | 0.76 | 0.18 | 87 | 1014.9 |
| 20260507130533 | 10 | 151 | 1.6 | 6.4 | 0.00 | 0.76 | 0.18 | 86 | 1014.8 |
| 20260507125529 | 11 | 167 | 1.6 | 6.4 | 0.00 | 0.76 | 0.18 | 86 | 1014.8 |
| 20260507124526 | 12 | 152 | 1.6 | 6.4 | 0.00 | 0.76 | 0.18 | 82 | 1014.7 |
| 20260507123523 | 12 | 338 | 1.6 | 6.4 | 0.05 | 0.76 | 0.18 | 82 | 1014.5 |
| 20260507122519 | 11 | 158 | 1.6 | 9.7 | 0.05 | 0.76 | 0.18 | 84 | 1014.5 |
| 20260507121516 | 11 | 249 | 1.6 | 9.7 | 0.05 | 0.76 | 0.18 | 84 | 1014.5 |
| 20260507120613 | 11 | 135 | 0.0 | 3.2 | 0.05 | 0.76 | 0.18 | 89 | 1014.5 |
| 20260507115609 | 10 | 150 | 1.6 | 6.4 | 0.05 | 0.76 | 0.18 | 90 | 1014.3 |
| 20260507114606 | 10 | 135 | 0.0 | 3.2 | 0.05 | 0.76 | 0.18 | 92 | 1014.3 |
| 20260507113603 | 11 | 158 | 3.2 | 11.3 | 0.00 | 0.69 | 0.13 | 86 | 1014.3 |
| 20260507112559 | 12 | 159 | 1.6 | 6.4 | 0.00 | 0.69 | 0.13 | 79 | 1014.2 |
| 20260507111556 | 12 | 145 | 3.2 | 11.3 | 0.00 | 0.69 | 0.13 | 78 | 1014.1 |
| 20260507110552 | 13 | 139 | 3.2 | 9.7 | 0.00 | 0.69 | 0.13 | 78 | 1013.8 |
| 20260507105549 | 12 | 152 | 3.2 | 9.7 | 0.00 | 0.69 | 0.13 | 80 | 1013.9 |
| 20260507104545 | 11 | 163 | 1.6 | 6.4 | 0.00 | 0.69 | 0.13 | 82 | 1014.0 |
| 20260507103542 | 11 | 167 | 1.6 | 6.4 | 0.00 | 0.69 | 0.13 | 84 | 1014.0 |
| 20260507102538 | 11 | 158 | 3.2 | 9.7 | 0.00 | 0.69 | 0.13 | 83 | 1013.9 |
| 20260507101535 | 11 | 150 | 1.6 | 3.2 | 0.00 | 0.69 | 0.13 | 85 | 1013.9 |
| 20260507100532 | 11 | 175 | 3.2 | 6.4 | 0.00 | 0.69 | 0.13 | 87 | 1013.9 |
| 20260507095528 | 10 | 169 | 3.2 | 6.4 | 0.00 | 0.69 | 0.13 | 88 | 1013.8 |
| 20260507094525 | 11 | 147 | 1.6 | 6.4 | 0.00 | 0.69 | 0.13 | 88 | 1013.7 |
| 20260507093522 | 11 | 135 | 1.6 | 6.4 | 0.00 | 0.69 | 0.13 | 87 | 1013.7 |
| 20260507092518 | 10 | 162 | 1.6 | 6.4 | 0.00 | 0.69 | 0.13 | 91 | 1013.6 |
| 20260507091615 | 10 | 156 | 1.6 | 6.4 | 0.00 | 0.69 | 0.13 | 90 | 1013.5 |
| 20260507090611 | 11 | 145 | 3.2 | 12.9 | 0.00 | 0.69 | 0.13 | 89 | 1013.4 |
| 20260507085608 | 10 | 152 | 3.2 | 6.4 | 0.00 | 0.69 | 0.13 | 90 | 1013.3 |
| 20260507084605 | 10 | 153 | 1.6 | 6.4 | 0.00 | 0.69 | 0.13 | 92 | 1013.2 |
| 20260507083601 | 10 | 158 | 1.6 | 9.7 | 0.00 | 0.69 | 0.13 | 93 | 1013.1 |
| 20260507082558 | 9 | 154 | 3.2 | 9.7 | 0.00 | 0.69 | 0.13 | 91 | 1013.0 |
| 20260507081554 | 10 | 144 | 1.6 | 6.4 | 0.00 | 0.69 | 0.13 | 90 | 1012.9 |
| 20260507080551 | 10 | 147 | 3.2 | 12.9 | 0.00 | 0.69 | 0.13 | 88 | 1012.9 |
| 20260507075547 | 10 | 123 | 0.0 | 6.4 | 0.00 | 0.69 | 0.13 | 89 | 1012.6 |
| 20260507074544 | 10 | 143 | 1.6 | 6.4 | 0.00 | 0.69 | 0.13 | 90 | 1012.5 |
| 20260507073541 | 10 | 148 | 3.2 | 9.7 | 0.00 | 0.69 | 0.13 | 90 | 1012.5 |
| 20260507072537 | 10 | 192 | 3.2 | 6.4 | 0.00 | 0.69 | 0.13 | 90 | 1012.2 |
| 20260507071534 | 9 | 171 | 1.6 | 6.4 | 0.00 | 0.69 | 0.13 | 93 | 1012.3 |
| 20260507070530 | 9 | 144 | 3.2 | 6.4 | 0.00 | 0.69 | 0.13 | 92 | 1012.3 |
| 20260507065527 | 9 | 144 | 3.2 | 9.7 | 0.00 | 0.69 | 0.13 | 91 | 1012.2 |
| 20260507064523 | 9 | 154 | 1.6 | 9.7 | 0.00 | 0.69 | 0.13 | 92 | 1012.2 |
| 20260507063520 | 8 | 158 | 1.6 | 6.4 | 0.03 | 0.69 | 0.13 | 94 | 1012.1 |
| 20260507062516 | 8 | 158 | 3.2 | 11.3 | 0.03 | 0.69 | 0.13 | 94 | 1012.1 |
| 20260507061613 | 8 | 158 | 1.6 | 6.4 | 0.05 | 0.69 | 0.13 | 94 | 1012.0 |
| 20260507060610 | 9 | 158 | 1.6 | 6.4 | 0.05 | 0.69 | 0.13 | 94 | 1011.8 |
| 20260507055607 | 8 | 158 | 0.0 | 0.0 | 0.05 | 0.69 | 0.13 | 96 | 1011.6 |
| 20260507054603 | 8 | 158 | 0.0 | 3.2 | 0.05 | 0.69 | 0.13 | 95 | 1011.5 |
| 20260507053600 | 8 | 158 | 1.6 | 6.4 | 0.03 | 0.66 | 0.10 | 95 | 1011.4 |
| 20260507052556 | 8 | 158 | 1.6 | 6.4 | 0.03 | 0.66 | 0.10 | 95 | 1011.3 |
| 20260507051553 | 9 | 154 | 1.6 | 6.4 | 0.00 | 0.64 | 0.05 | 95 | 1011.3 |
| 20260507050550 | 9 | 135 | 0.0 | 0.0 | 0.00 | 0.64 | 0.05 | 95 | 1011.2 |
| 20260507045546 | 9 | 135 | 0.0 | 0.0 | 0.00 | 0.64 | 0.05 | 95 | 1011.2 |
| 20260507044543 | 9 | 135 | 0.0 | 3.2 | 0.03 | 0.64 | 0.05 | 95 | 1011.1 |
| 20260507043539 | 9 | 135 | 0.0 | 3.2 | 0.03 | 0.64 | 0.05 | 95 | 1010.9 |
| 20260507042536 | 9 | 113 | 0.0 | 3.2 | 0.03 | 0.64 | 0.05 | 95 | 1010.9 |
| 20260507041532 | 9 | 158 | 0.0 | 0.0 | 0.03 | 0.64 | 0.05 | 96 | 1010.8 |
| 20260507040529 | 9 | 158 | 0.0 | 3.2 | 0.03 | 0.64 | 0.05 | 96 | 1010.8 |
| 20260507035526 | 9 | 146 | 0.0 | 6.4 | 0.03 | 0.64 | 0.05 | 95 | 1010.7 |
| 20260507034522 | 9 | 180 | 0.0 | 3.2 | 0.00 | 0.61 | 0.03 | 96 | 1010.6 |
| 20260507033519 | 9 | 158 | 0.0 | 3.2 | 0.00 | 0.61 | 0.03 | 95 | 1010.7 |
| 20260507032515 | 9 | 158 | 1.6 | 3.2 | 0.00 | 0.61 | 0.03 | 95 | 1010.6 |
| 20260507031612 | 9 | 158 | 0.0 | 3.2 | 0.00 | 0.61 | 0.03 | 95 | 1010.7 |
| 20260507030609 | 9 | 103 | 1.6 | 3.2 | 0.00 | 0.61 | 0.03 | 95 | 1010.6 |
| 20260507025605 | 9 | 158 | 1.6 | 6.4 | 0.00 | 0.61 | 0.03 | 96 | 1010.7 |
| 20260507024602 | 9 | 113 | 0.0 | 3.2 | 0.00 | 0.61 | 0.03 | 96 | 1010.5 |
| 20260507023559 | 9 | 150 | 1.6 | 6.4 | 0.00 | 0.61 | 0.03 | 96 | 1010.4 |
| 20260507022555 | 9 | 135 | 0.0 | 6.4 | 0.00 | 0.61 | 0.03 | 96 | 1010.4 |
| 20260507021552 | 9 | 148 | 1.6 | 6.4 | 0.00 | 0.61 | 0.03 | 96 | 1010.3 |
| 20260507020549 | 9 | 135 | 0.0 | 3.2 | 0.00 | 0.61 | 0.03 | 95 | 1010.3 |
| 20260507015545 | 9 | 148 | 1.6 | 6.4 | 0.00 | 0.61 | 0.03 | 95 | 1010.2 |
| 20260507014541 | 9 | 143 | 1.6 | 6.4 | 0.00 | 0.61 | 0.03 | 94 | 1010.1 |
| 20260507013538 | 9 | 158 | 1.6 | 9.7 | 0.03 | 0.61 | 0.03 | 95 | 1010.1 |
| 20260507012535 | 10 | 135 | 0.0 | 3.2 | 0.03 | 0.61 | 0.03 | 95 | 1010.0 |
| 20260507011531 | 10 | 139 | 1.6 | 6.4 | 0.03 | 0.61 | 0.03 | 94 | 1009.8 |
| 20260507010528 | 10 | 180 | 0.0 | 3.2 | 0.03 | 0.61 | 0.03 | 95 | 1009.9 |
| 20260507005524 | 10 | 169 | 0.0 | 3.2 | 0.03 | 0.61 | 0.03 | 95 | 1010.1 |
| 20260507004521 | 10 | 135 | 0.0 | 3.2 | 0.03 | 0.61 | 0.03 | 95 | 1010.1 |
| 20260507003518 | 10 | 135 | 0.0 | 3.2 | 0.00 | 0.56 | 0.00 | 95 | 1010.1 |
| 20260507002614 | 10 | 147 | 0.0 | 6.4 | 0.00 | 0.56 | 0.00 | 95 | 1010.1 |
| 20260507001611 | 10 | 124 | 0.0 | 3.2 | 0.00 | 0.56 | 0.00 | 95 | 1010.2 |
| 20260507000608 | 10 | 158 | 0.0 | 0.0 | 0.00 | 0.56 | 0.00 | 95 | 1010.2 |
| 20260506235604 | 10 | 158 | 0.0 | 3.2 | 0.00 | 0.56 | 0.00 | 94 | 1010.1 |
| 20260506234601 | 10 | 154 | 1.6 | 6.4 | 0.00 | 0.56 | 0.00 | 94 | 1009.9 |
| 20260506233557 | 10 | 158 | 0.0 | 3.2 | 0.00 | 0.56 | 0.00 | 93 | 1009.9 |
| 20260506232554 | 10 | 158 | 1.6 | 6.4 | 0.00 | 0.56 | 0.00 | 94 | 1009.9 |
| 20260506231550 | 9 | 158 | 0.0 | 6.4 | 0.00 | 0.56 | 0.00 | 94 | 1009.9 |
| 20260506230547 | 9 | 158 | 0.0 | 0.0 | 0.00 | 0.56 | 0.00 | 96 | 1009.9 |
| 20260506225543 | 9 | 158 | 0.0 | 0.0 | 0.00 | 0.56 | 0.00 | 97 | 1009.7 |